Location: ?
(35.4996°N, 139.3166°E)
Time: 03:52:38
(UTC+00:00)

Cosmos 2263 Rocket - Visible Passes

Search period start: 25 July 2024 00:00
Search period end: 04 August 2024 00:00
Orbit: 824 x 847 km, 71.0° (Epoch: 24 July)

Date Brightness Start Highest point End Pass type
(mag) Time Alt. Az. Time Alt. Az. Time Alt. Az.
25 Jul 2.3 17:12:37 10° NNW 17:18:15 75° ENE 17:21:35 26° SSE visible
25 Jul 3.9 18:59:27 10° WNW 19:01:25 12° W 19:03:07 10° WSW visible
26 Jul 2.4 16:55:38 10° NNW 17:01:15 68° ENE 17:03:09 42° SE visible
26 Jul 3.8 18:41:54 10° WNW 18:44:29 13° W 18:44:43 13° W visible
27 Jul 2.5 16:38:40 10° NNW 16:44:15 62° ENE 16:45:08 54° ESE visible
27 Jul 3.9 18:24:29 10° WNW 18:26:43 14° W 18:26:43 14° W visible
28 Jul 2.6 16:21:42 10° NNW 16:27:15 56° ENE 16:27:22 56° ENE visible
28 Jul 3.9 18:07:10 10° WNW 18:08:58 15° W 18:08:58 15° W visible
29 Jul 2.9 16:04:45 10° N 16:09:47 50° NE 16:09:47 50° NE visible
29 Jul 4.0 17:49:53 10° WNW 17:51:24 15° WNW 17:51:24 15° WNW visible
30 Jul 3.2 15:47:48 10° N 15:52:21 43° NE 15:52:21 43° NE visible
30 Jul 4.1 17:32:39 10° NW 17:33:58 15° WNW 17:33:58 15° WNW visible
31 Jul 3.4 15:30:52 10° N 15:35:01 37° NNE 15:35:01 37° NNE visible
31 Jul 4.2 17:15:28 10° NW 17:16:38 15° WNW 17:16:38 15° WNW visible
01 Aug 3.6 15:13:56 10° N 15:17:46 33° NNE 15:17:46 33° NNE visible
01 Aug 4.3 16:58:18 10° NW 16:59:25 15° WNW 16:59:25 15° WNW visible
02 Aug 3.8 14:57:00 10° N 15:00:37 30° NNE 15:00:37 30° NNE visible
02 Aug 4.3 16:41:10 10° NW 16:42:14 15° NW 16:42:14 15° NW visible
03 Aug 3.9 14:40:06 10° N 14:43:30 27° NNE 14:43:30 27° NNE visible
03 Aug 4.3 16:24:02 10° NW 16:25:09 15° NW 16:25:09 15° NW visible
